Location: Serpentine
(32.3617°S, 115.9768°E)
Time: 02:16:15
(UTC+08:00)

X-37B - Visible Passes

Search period start: 07 December 2021 00:00
Search period end: 17 December 2021 00:00
Orbit: 330 x 341 km, 45.0° (Epoch: 20 November)

Date Brightness Start Highest point End Pass type
(mag) Time Alt. Az. Time Alt. Az. Time Alt. Az.
09 Dec 2.6 03:45:19 13° NNE 03:46:30 16° NE 03:48:24 10° E visible
10 Dec 0.6 04:04:54 19° NW 04:06:45 59° NE 04:09:36 10° ESE visible
11 Dec 3.2 02:53:12 13° ENE 02:53:12 13° ENE 02:53:48 10° E visible
11 Dec 1.4 04:24:32 10° W 04:27:13 37° SSW 04:29:56 10° SE visible
12 Dec 1.0 03:12:38 49° E 03:12:38 49° E 03:15:02 10° ESE visible
13 Dec 1.3 03:32:01 32° WSW 03:32:39 37° SSW 03:35:23 10° SE visible
14 Dec 3.7 02:20:09 12° ESE 02:20:09 12° ESE 02:20:28 10° ESE visible
14 Dec 2.8 03:51:22 10° WSW 03:53:19 17° SSW 03:55:17 10° SSE visible
15 Dec 2.8 02:39:26 23° SSE 02:39:26 23° SSE 02:40:49 10° SE visible
16 Dec 2.8 02:58:41 17° SSW 02:58:45 17° SSW 03:00:43 10° SSE visible
